Location: Hamburg
(53.5500°N, 10.0000°E)
Time: 23:24:22
(UTC+02:00)

ISS - Visible Passes

Search period start: 17 April 2014 00:00
Search period end: 27 April 2014 00:00
Orbit: 414 x 419 km, 51.6° (Epoch: 17 April)

Date Brightness Start Highest point End Pass type
(mag) Time Alt. Az. Time Alt. Az. Time Alt. Az.
17 Apr -2.2 22:03:47 10° W 22:06:52 33° SSW 22:08:06 25° SSE visible
18 Apr -2.5 21:15:27 10° W 21:18:39 42° SSW 21:21:39 11° SE visible
18 Apr -0.9 22:52:54 10° WSW 22:54:34 14° SW 22:54:34 14° SW visible
19 Apr -1.4 22:04:09 10° W 22:06:41 20° SSW 22:08:07 16° S visible
20 Apr -1.7 21:15:35 10° W 21:18:28 26° SSW 21:21:20 10° SSE visible
21 Apr -0.6 22:05:35 10° SW 22:06:11 10° SW 22:06:46 10° SSW visible
22 Apr -0.8 21:15:58 10° WSW 21:17:58 15° SW 21:19:58 10° S visible
